| time (UTC) | temp C | wind direction | speed KPH | gust KPH | rain 1hr cm | rain 24hr cm | rain mn cm | humidity % | barometer mb |
| 20260504050556 | 19 | 14 | 0.0 | 0.0 | 0.00 | 1.52 | 0.00 | 100 | 1018.4 |
| 20260504050008 | 20 | 22 | 0.0 | 0.0 | 0.00 | 1.52 | 1.52 | 100 | 1018.8 |
| 20260504045946 | 20 | 14 | 0.0 | 0.0 | 0.00 | 1.52 | 1.52 | 100 | 1018.6 |
| 20260504045556 | 20 | 14 | 0.0 | 0.0 | 0.00 | 1.52 | 1.52 | 100 | 1018.6 |
| 20260504045056 | 20 | 14 | 0.0 | 3.2 | 0.00 | 1.52 | 1.52 | 100 | 1018.8 |
| 20260504044556 | 20 | 22 | 0.0 | 0.0 | 0.00 | 1.52 | 1.52 | 100 | 1018.8 |
| 20260504044056 | 20 | 22 | 0.0 | 0.0 | 0.00 | 1.52 | 1.52 | 100 | 1018.8 |
| 20260504044048 | 20 | 16 | 0.0 | 0.0 | 0.00 | 1.52 | 1.52 | 100 | 1019.0 |
| 20260504043952 | 20 | 22 | 0.0 | 8.0 | 0.00 | 1.52 | 1.52 | 100 | 1018.9 |
| 20260504043556 | 20 | 22 | 0.0 | 8.0 | 0.00 | 1.52 | 1.52 | 100 | 1018.9 |
| 20260504043057 | 20 | 28 | 3.2 | 8.0 | 0.00 | 1.52 | 1.52 | 100 | 1018.9 |
| 20260504042638 | 20 | 16 | 0.0 | 6.4 | 0.00 | 1.52 | 1.52 | 100 | 1019.0 |
| 20260504042556 | 20 | 16 | 0.0 | 0.0 | 0.00 | 1.52 | 1.52 | 100 | 1019.0 |
| 20260504042337 | 20 | 30 | 1.6 | 4.8 | 0.00 | 1.52 | 1.52 | 100 | 1018.9 |
| 20260504042056 | 20 | 16 | 0.0 | 6.4 | 0.00 | 1.52 | 1.52 | 100 | 1019.0 |
| 20260504041556 | 20 | 30 | 1.6 | 4.8 | 0.00 | 1.52 | 1.52 | 100 | 1018.9 |
| 20260504041224 | 20 | 35 | 0.0 | 6.4 | 0.00 | 1.52 | 1.52 | 100 | 1018.9 |
| 20260504041056 | 20 | 35 | 0.0 | 6.4 | 0.00 | 1.52 | 1.52 | 100 | 1018.9 |
| 20260504040845 | 20 | 37 | 1.6 | 8.0 | 0.00 | 1.52 | 1.52 | 100 | 1019.1 |
| 20260504040556 | 20 | 37 | 1.6 | 8.0 | 0.00 | 1.52 | 1.52 | 100 | 1019.1 |
| 20260504040058 | 20 | 42 | 0.0 | 0.0 | 0.00 | 1.52 | 1.52 | 100 | 1019.3 |
| 20260504040056 | 21 | 45 | 3.2 | 9.7 | 0.00 | 1.52 | 1.52 | 100 | 1019.1 |
| 20260504035944 | 20 | 42 | 0.0 | 0.0 | 0.00 | 1.52 | 1.52 | 100 | 1019.3 |
| 20260504035556 | 20 | 61 | 4.8 | 6.4 | 0.00 | 1.52 | 1.52 | 100 | 1019.2 |
| 20260504035056 | 20 | 42 | 0.0 | 0.0 | 0.00 | 1.52 | 1.52 | 100 | 1019.3 |
| 20260504034813 | 20 | 42 | 0.0 | 0.0 | 0.00 | 1.52 | 1.52 | 100 | 1019.2 |
| 20260504034556 | 20 | 42 | 0.0 | 0.0 | 0.00 | 1.52 | 1.52 | 100 | 1019.2 |
| 20260504034147 | 20 | 42 | 0.0 | 3.2 | 0.00 | 1.52 | 1.52 | 100 | 1019.2 |
| 20260504034056 | 20 | 42 | 0.0 | 0.0 | 0.00 | 1.52 | 1.52 | 100 | 1019.2 |
| 20260504033837 | 20 | 67 | 1.6 | 3.2 | 0.00 | 1.52 | 1.52 | 100 | 1019.3 |
| 20260504033556 | 20 | 42 | 0.0 | 3.2 | 0.00 | 1.52 | 1.52 | 100 | 1019.2 |
| 20260504033056 | 20 | 67 | 1.6 | 3.2 | 0.00 | 1.52 | 1.52 | 100 | 1019.3 |
| 20260504032556 | 20 | 53 | 3.2 | 4.8 | 0.00 | 1.52 | 1.52 | 100 | 1019.2 |
| 20260504032056 | 20 | 82 | 1.6 | 6.4 | 0.00 | 1.52 | 1.52 | 100 | 1019.2 |
| 20260504032022 | 21 | 63 | 1.6 | 8.0 | 0.00 | 1.52 | 1.52 | 100 | 1019.1 |
| 20260504031557 | 21 | 63 | 1.6 | 8.0 | 0.00 | 1.52 | 1.52 | 100 | 1019.1 |
| 20260504031057 | 21 | 92 | 0.0 | 6.4 | 0.00 | 1.52 | 1.52 | 100 | 1019.2 |
| 20260504030839 | 21 | 97 | 1.6 | 4.8 | 0.00 | 1.52 | 1.52 | 100 | 1019.3 |
| 20260504030557 | 21 | 81 | 1.6 | 8.0 | 0.00 | 1.52 | 1.52 | 100 | 1019.3 |
| 20260504030057 | 21 | 97 | 1.6 | 4.8 | 0.00 | 1.52 | 1.52 | 100 | 1019.3 |
| 20260504025731 | 20 | 52 | 0.0 | 8.0 | 0.00 | 1.52 | 1.52 | 100 | 1019.3 |
| 20260504025557 | 21 | 66 | 3.2 | 8.0 | 0.00 | 1.52 | 1.52 | 100 | 1019.4 |
| 20260504025057 | 20 | 52 | 0.0 | 8.0 | 0.00 | 1.52 | 1.52 | 100 | 1019.3 |
| 20260504024557 | 20 | 112 | 4.8 | 6.4 | 0.00 | 1.52 | 1.52 | 100 | 1019.3 |
| 20260504024139 | 20 | 90 | 3.2 | 8.0 | 0.00 | 1.52 | 1.52 | 100 | 1019.1 |
| 20260504024057 | 20 | 115 | 3.2 | 4.8 | 0.00 | 1.52 | 1.52 | 100 | 1019.1 |
| 20260504023557 | 20 | 90 | 3.2 | 8.0 | 0.00 | 1.52 | 1.52 | 100 | 1019.1 |
| 20260504023136 | 20 | 80 | 0.0 | 4.8 | 0.00 | 1.52 | 1.52 | 100 | 1019.1 |
| 20260504023057 | 20 | 105 | 3.2 | 8.0 | 0.00 | 1.52 | 1.52 | 100 | 1019.0 |
| 20260504022819 | 21 | 146 | 0.0 | 6.4 | 0.00 | 1.52 | 1.52 | 100 | 1019.0 |
| 20260504022557 | 20 | 80 | 0.0 | 4.8 | 0.00 | 1.52 | 1.52 | 100 | 1019.1 |
| 20260504022107 | 20 | 142 | 3.2 | 4.8 | 0.00 | 1.52 | 1.52 | 100 | 1018.9 |
| 20260504022057 | 21 | 146 | 0.0 | 6.4 | 0.00 | 1.52 | 1.52 | 100 | 1019.0 |
| 20260504021557 | 20 | 142 | 3.2 | 4.8 | 0.00 | 1.52 | 1.52 | 100 | 1018.9 |
| 20260504021225 | 20 | 120 | 3.2 | 6.4 | 0.00 | 1.52 | 1.52 | 100 | 1018.9 |
| 20260504021057 | 20 | 120 | 3.2 | 6.4 | 0.00 | 1.52 | 1.52 | 100 | 1018.9 |
| 20260504021012 | 20 | 63 | 0.0 | 0.0 | 0.00 | 1.52 | 1.52 | 100 | 1018.8 |
| 20260504020639 | 20 | 63 | 0.0 | 0.0 | 0.00 | 1.52 | 1.52 | 100 | 1018.8 |
| 20260504020557 | 20 | 63 | 0.0 | 0.0 | 0.00 | 1.52 | 1.52 | 100 | 1018.8 |
| 20260504020304 | 20 | 63 | 0.0 | 0.0 | 0.00 | 1.52 | 1.52 | 100 | 1018.8 |
| 20260504020057 | 20 | 63 | 0.0 | 0.0 | 0.00 | 1.52 | 1.52 | 100 | 1018.8 |
| 20260504015727 | 20 | 63 | 0.0 | 0.0 | 0.00 | 1.52 | 1.52 | 100 | 1018.7 |
| 20260504015557 | 20 | 63 | 0.0 | 0.0 | 0.00 | 1.52 | 1.52 | 100 | 1018.8 |
| 20260504015057 | 20 | 63 | 0.0 | 0.0 | 0.00 | 1.52 | 1.52 | 100 | 1018.7 |
| 20260504014557 | 20 | 63 | 0.0 | 0.0 | 0.00 | 1.52 | 1.52 | 100 | 1018.7 |
| 20260504014345 | 21 | 87 | 0.0 | 1.6 | 0.00 | 1.52 | 1.52 | 100 | 1018.8 |
| 20260504014057 | 21 | 63 | 0.0 | 0.0 | 0.00 | 1.52 | 1.52 | 100 | 1018.7 |
| 20260504013829 | 21 | 87 | 0.0 | 1.6 | 0.00 | 1.52 | 1.52 | 100 | 1018.8 |
| 20260504013557 | 21 | 87 | 0.0 | 1.6 | 0.00 | 1.52 | 1.52 | 100 | 1018.8 |
| 20260504013422 | 21 | 139 | 1.6 | 1.6 | 0.00 | 1.52 | 1.52 | 100 | 1018.6 |
| 20260504013132 | 21 | 139 | 1.6 | 1.6 | 0.00 | 1.52 | 1.52 | 100 | 1018.6 |
| 20260504013057 | 21 | 139 | 1.6 | 1.6 | 0.00 | 1.52 | 1.52 | 100 | 1018.6 |
| 20260504012557 | 21 | 88 | 0.0 | 3.2 | 0.00 | 1.52 | 1.52 | 100 | 1018.8 |
| 20260504012148 | 21 | 140 | 1.6 | 4.8 | 0.00 | 1.52 | 1.52 | 100 | 1018.6 |
| 20260504012057 | 21 | 147 | 3.2 | 6.4 | 0.00 | 1.52 | 1.52 | 100 | 1018.6 |
| 20260504011557 | 21 | 140 | 1.6 | 4.8 | 0.00 | 1.52 | 1.52 | 100 | 1018.6 |
| 20260504011149 | 21 | 88 | 0.0 | 4.8 | 0.00 | 1.52 | 1.52 | 100 | 1018.5 |
| 20260504011057 | 21 | 154 | 3.2 | 4.8 | 0.00 | 1.52 | 1.52 | 100 | 1018.5 |
| 20260504010734 | 21 | 98 | 3.2 | 6.4 | 0.00 | 1.52 | 1.52 | 100 | 1018.3 |
| 20260504010557 | 21 | 88 | 0.0 | 4.8 | 0.00 | 1.52 | 1.52 | 100 | 1018.5 |
| 20260504010057 | 21 | 98 | 3.2 | 6.4 | 0.00 | 1.52 | 1.52 | 100 | 1018.3 |
| 20260504005557 | 21 | 74 | 3.2 | 4.8 | 0.00 | 1.52 | 1.52 | 100 | 1018.3 |
| 20260504005233 | 21 | 23 | 0.0 | 0.0 | 0.00 | 1.52 | 1.52 | 100 | 1018.3 |
| 20260504005059 | 22 | 23 | 0.0 | 0.0 | 0.00 | 1.55 | 1.52 | 100 | 1017.9 |
| 20260504005057 | 21 | 23 | 0.0 | 0.0 | 0.00 | 1.52 | 1.52 | 100 | 1018.3 |
| 20260504004557 | 22 | 23 | 0.0 | 0.0 | 0.00 | 1.52 | 1.52 | 100 | 1018.2 |
| 20260504004057 | 22 | 23 | 0.0 | 0.0 | 0.00 | 1.52 | 1.52 | 100 | 1018.1 |
| 20260504003557 | 22 | 23 | 0.0 | 0.0 | 0.00 | 1.52 | 1.52 | 100 | 1018.1 |
| 20260504003057 | 22 | 23 | 0.0 | 0.0 | 0.00 | 1.52 | 1.52 | 100 | 1018.0 |
| 20260504002557 | 22 | 23 | 0.0 | 0.0 | 0.00 | 1.55 | 1.52 | 100 | 1017.9 |
| 20260504002439 | 22 | 19 | 1.6 | 3.2 | 0.00 | 1.55 | 1.52 | 100 | 1017.8 |
| 20260504002057 | 22 | 23 | 0.0 | 0.0 | 0.00 | 1.55 | 1.52 | 100 | 1017.8 |
| 20260504001557 | 22 | 23 | 0.0 | 3.2 | 0.00 | 1.55 | 1.52 | 100 | 1017.8 |
| 20260504001340 | 22 | 21 | 0.0 | 3.2 | 0.00 | 1.55 | 1.52 | 100 | 1017.7 |
| 20260504001057 | 22 | 19 | 1.6 | 3.2 | 0.00 | 1.55 | 1.52 | 100 | 1017.8 |
| 20260504000557 | 22 | 21 | 0.0 | 3.2 | 0.00 | 1.55 | 1.52 | 100 | 1017.7 |
| 20260504000147 | 22 | 167 | 1.6 | 6.4 | 0.00 | 1.55 | 1.52 | 100 | 1017.6 |
| 20260504000057 | 22 | 78 | 0.0 | 3.2 | 0.00 | 1.55 | 1.52 | 100 | 1017.6 |
| 20260503235557 | 22 | 167 | 1.6 | 6.4 | 0.00 | 1.55 | 1.52 | 100 | 1017.6 |
| 20260503235057 | 22 | 57 | 3.2 | 6.4 | 0.00 | 1.55 | 1.52 | 100 | 1017.5 |
| 20260503234557 | 22 | 132 | 3.2 | 6.4 | 0.00 | 1.55 | 1.52 | 100 | 1017.5 |
| 20260503234505 | 22 | 149 | 0.0 | 4.8 | 0.00 | 1.55 | 1.52 | 100 | 1017.5 |
| 20260503234132 | 23 | 113 | 3.2 | 8.0 | 0.00 | 1.55 | 1.52 | 100 | 1017.4 |
| 20260503234057 | 22 | 149 | 0.0 | 4.8 | 0.00 | 1.55 | 1.52 | 100 | 1017.5 |
| 20260503234014 | 23 | 113 | 3.2 | 8.0 | 0.00 | 1.55 | 1.52 | 100 | 1017.4 |
| 20260503233607 | 23 | 74 | 0.0 | 6.4 | 0.00 | 1.55 | 1.52 | 100 | 1017.4 |
| 20260503233557 | 23 | 113 | 3.2 | 8.0 | 0.00 | 1.55 | 1.52 | 100 | 1017.4 |
| 20260503233358 | 23 | 56 | 0.0 | 6.4 | 0.00 | 1.57 | 1.52 | 100 | 1017.5 |
| 20260503233057 | 23 | 74 | 0.0 | 6.4 | 0.00 | 1.55 | 1.52 | 100 | 1017.4 |
| 20260503232557 | 23 | 56 | 0.0 | 6.4 | 0.00 | 1.57 | 1.52 | 100 | 1017.5 |
| 20260503232526 | 23 | 88 | 4.8 | 6.4 | 0.00 | 1.57 | 1.52 | 100 | 1017.5 |
| 20260503232439 | 23 | 88 | 4.8 | 6.4 | 0.00 | 1.57 | 1.52 | 100 | 1017.5 |
| 20260503232058 | 23 | 88 | 4.8 | 6.4 | 0.00 | 1.57 | 1.52 | 100 | 1017.5 |
| 20260503232014 | 23 | 116 | 6.4 | 9.7 | 0.00 | 1.57 | 1.52 | 100 | 1017.3 |
| 20260503231558 | 23 | 97 | 1.6 | 8.0 | 0.00 | 1.57 | 1.52 | 100 | 1017.4 |
| 20260503231418 | 23 | 115 | 3.2 | 8.0 | 0.00 | 1.57 | 1.52 | 100 | 1017.3 |
| 20260503231058 | 23 | 115 | 3.2 | 8.0 | 0.00 | 1.57 | 1.52 | 100 | 1017.3 |
| 20260503230730 | 23 | 98 | 4.8 | 8.0 | 0.00 | 1.57 | 1.52 | 100 | 1017.3 |
| 20260503230558 | 23 | 116 | 6.4 | 9.7 | 0.00 | 1.57 | 1.52 | 100 | 1017.3 |
| 20260503230143 | 23 | 116 | 4.8 | 11.3 | 0.00 | 1.57 | 1.52 | 100 | 1017.3 |
| 20260503230112 | 23 | 116 | 4.8 | 11.3 | 0.00 | 1.57 | 1.52 | 100 | 1017.3 |
| 20260503230058 | 23 | 98 | 4.8 | 8.0 | 0.00 | 1.57 | 1.52 | 100 | 1017.3 |
| 20260503225558 | 23 | 116 | 4.8 | 11.3 | 0.00 | 1.57 | 1.52 | 100 | 1017.3 |
| 20260503225058 | 23 | 112 | 6.4 | 9.7 | 0.00 | 1.57 | 1.52 | 100 | 1017.3 |
| 20260503224558 | 23 | 99 | 4.8 | 9.7 | 0.00 | 1.57 | 1.52 | 100 | 1017.2 |
| 20260503224147 | 23 | 67 | 6.4 | 8.0 | 0.00 | 1.57 | 1.52 | 100 | 1017.3 |
| 20260503224058 | 23 | 126 | 4.8 | 8.0 | 0.00 | 1.57 | 1.52 | 100 | 1017.2 |
| 20260503223802 | 23 | 67 | 6.4 | 8.0 | 0.00 | 1.57 | 1.52 | 100 | 1017.3 |
| 20260503223558 | 23 | 67 | 6.4 | 8.0 | 0.00 | 1.57 | 1.52 | 100 | 1017.3 |
| 20260503223418 | 23 | 80 | 3.2 | 9.7 | 0.00 | 1.57 | 1.52 | 100 | 1017.3 |
| 20260503223058 | 23 | 80 | 3.2 | 9.7 | 0.00 | 1.57 | 1.52 | 100 | 1017.3 |
| 20260503222730 | 23 | 95 | 9.7 | 12.9 | 0.00 | 1.63 | 1.52 | 100 | 1017.3 |
| 20260503222558 | 23 | 123 | 6.4 | 9.7 | 0.00 | 1.63 | 1.52 | 100 | 1017.4 |
| 20260503222058 | 23 | 95 | 9.7 | 12.9 | 0.00 | 1.63 | 1.52 | 100 | 1017.3 |
| 20260503221558 | 24 | 119 | 8.0 | 14.5 | 0.00 | 1.63 | 1.52 | 100 | 1017.2 |
| 20260503221340 | 24 | 102 | 6.4 | 14.5 | 0.00 | 1.63 | 1.52 | 100 | 1017.3 |
| 20260503221313 | 24 | 132 | 8.0 | 14.5 | 0.00 | 1.63 | 1.52 | 100 | 1017.3 |
| 20260503221103 | 24 | 129 | 9.7 | 12.9 | 0.00 | 1.63 | 1.52 | 100 | 1017.2 |
| 20260503221058 | 24 | 102 | 6.4 | 14.5 | 0.00 | 1.63 | 1.52 | 100 | 1017.3 |
| 20260503220603 | 24 | 104 | 6.4 | 17.7 | 0.00 | 1.63 | 1.52 | 100 | 1017.2 |
| 20260503220558 | 24 | 129 | 9.7 | 12.9 | 0.00 | 1.63 | 1.52 | 100 | 1017.2 |
| 20260503220058 | 24 | 104 | 6.4 | 17.7 | 0.00 | 1.63 | 1.52 | 100 | 1017.2 |
| 20260503215558 | 25 | 59 | 8.0 | 8.0 | 0.00 | 1.63 | 1.52 | 100 | 1017.2 |
| 20260503215058 | 24 | 132 | 8.0 | 14.5 | 0.00 | 1.63 | 1.52 | 100 | 1017.3 |
| 20260503214558 | 24 | 137 | 8.0 | 16.1 | 0.00 | 1.63 | 1.52 | 100 | 1017.2 |
| 20260503214058 | 25 | 67 | 9.7 | 12.9 | 0.00 | 1.63 | 1.52 | 100 | 1017.2 |
| 20260503213558 | 25 | 140 | 6.4 | 12.9 | 0.00 | 1.63 | 1.52 | 100 | 1017.4 |
| 20260503213058 | 24 | 118 | 11.3 | 12.9 | 0.00 | 1.63 | 1.52 | 100 | 1017.4 |
| 20260503212856 | 25 | 101 | 6.4 | 11.3 | 0.00 | 1.70 | 1.52 | 100 | 1017.3 |
| 20260503212558 | 25 | 101 | 6.4 | 11.3 | 0.00 | 1.70 | 1.52 | 100 | 1017.3 |
| 20260503212058 | 25 | 109 | 8.0 | 12.9 | 0.00 | 1.70 | 1.52 | 100 | 1017.3 |
| 20260503211729 | 25 | 77 | 6.4 | 14.5 | 0.00 | 1.70 | 1.52 | 100 | 1017.3 |
| 20260503211651 | 25 | 61 | 6.4 | 14.5 | 0.00 | 1.70 | 1.52 | 100 | 1017.5 |
| 20260503211558 | 25 | 77 | 6.4 | 14.5 | 0.00 | 1.70 | 1.52 | 100 | 1017.3 |
| 20260503211058 | 25 | 94 | 11.3 | 14.5 | 0.00 | 1.70 | 1.52 | 100 | 1017.4 |
| 20260503210652 | 25 | 87 | 4.8 | 16.1 | 0.00 | 1.70 | 1.52 | 100 | 1017.4 |
| 20260503210558 | 25 | 87 | 4.8 | 16.1 | 0.00 | 1.70 | 1.52 | 100 | 1017.4 |
| 20260503210058 | 25 | 78 | 6.4 | 14.5 | 0.00 | 1.70 | 1.52 | 100 | 1017.3 |
| 20260503205805 | 25 | 61 | 6.4 | 14.5 | 0.00 | 1.70 | 1.52 | 100 | 1017.5 |
| 20260503205558 | 25 | 61 | 6.4 | 14.5 | 0.00 | 1.70 | 1.52 | 100 | 1017.5 |
| 20260503205058 | 25 | 61 | 12.9 | 17.7 | 0.00 | 1.70 | 1.52 | 100 | 1017.6 |
| 20260503204558 | 25 | 46 | 8.0 | 16.1 | 0.00 | 1.70 | 1.52 | 100 | 1017.7 |
| 20260503204128 | 25 | 37 | 9.7 | 16.1 | 0.00 | 1.70 | 1.52 | 100 | 1017.8 |
| 20260503204058 | 25 | 42 | 11.3 | 19.3 | 0.00 | 1.70 | 1.52 | 100 | 1017.8 |
| 20260503203558 | 25 | 37 | 9.7 | 16.1 | 0.00 | 1.70 | 1.52 | 100 | 1017.8 |
| 20260503203455 | 25 | 91 | 9.7 | 20.9 | 0.00 | 3.40 | 1.52 | 100 | 1018.0 |
| 20260503203058 | 25 | 56 | 8.0 | 16.1 | 0.00 | 1.70 | 1.52 | 100 | 1017.8 |
| 20260503203014 | 25 | 85 | 9.7 | 17.7 | 0.00 | 3.40 | 1.52 | 100 | 1017.8 |
| 20260503202558 | 25 | 85 | 9.7 | 17.7 | 0.00 | 3.40 | 1.52 | 100 | 1017.8 |
| 20260503202058 | 25 | 68 | 14.5 | 17.7 | 0.00 | 3.40 | 1.52 | 100 | 1017.9 |
| 20260503201558 | 24 | 39 | 12.9 | 20.9 | 0.00 | 3.40 | 1.52 | 100 | 1017.9 |
| 20260503201058 | 25 | 78 | 12.9 | 17.7 | 0.00 | 3.40 | 1.52 | 100 | 1017.9 |
| 20260503200558 | 25 | 95 | 8.0 | 17.7 | 0.00 | 3.40 | 1.52 | 100 | 1017.9 |
| 20260503200058 | 25 | 91 | 9.7 | 20.9 | 0.00 | 3.40 | 1.52 | 100 | 1018.0 |
| 20260503200044 | 25 | 78 | 16.1 | 22.5 | 0.00 | 3.40 | 1.52 | 100 | 1018.1 |
| 20260503195558 | 25 | 78 | 16.1 | 22.5 | 0.00 | 3.40 | 1.52 | 100 | 1018.1 |
| 20260503195430 | 25 | 80 | 1.6 | 22.5 | 0.00 | 3.40 | 1.52 | 100 | 1018.1 |
| 20260503195058 | 25 | 80 | 1.6 | 22.5 | 0.00 | 3.40 | 1.52 | 100 | 1018.1 |
| 20260503194601 | 25 | 74 | 12.9 | 17.7 | 0.00 | 3.40 | 1.52 | 100 | 1018.2 |
| 20260503194558 | 25 | 43 | 19.3 | 20.9 | 0.00 | 3.40 | 1.52 | 100 | 1018.2 |
| 20260503194058 | 25 | 74 | 12.9 | 17.7 | 0.00 | 3.40 | 1.52 | 100 | 1018.2 |
| 20260503193558 | 24 | 56 | 6.4 | 19.3 | 0.00 | 3.40 | 1.52 | 100 | 1018.1 |
| 20260503193316 | 23 | 52 | 17.7 | 19.3 | 0.00 | 3.40 | 1.52 | 100 | 1018.3 |
| 20260503193058 | 23 | 52 | 17.7 | 19.3 | 0.00 | 3.40 | 1.52 | 100 | 1018.3 |
| 20260503192821 | 23 | 49 | 9.7 | 22.5 | 0.00 | 3.40 | 1.52 | 100 | 1018.4 |
| 20260503192651 | 23 | 49 | 9.7 | 22.5 | 0.00 | 3.40 | 1.52 | 100 | 1018.4 |
| 20260503192558 | 23 | 49 | 9.7 | 22.5 | 0.00 | 3.40 | 1.52 | 100 | 1018.4 |
| 20260503192548 | 23 | 74 | 16.1 | 19.3 | 0.00 | 3.40 | 1.52 | 100 | 1018.4 |
| 20260503192059 | 23 | 74 | 16.1 | 19.3 | 0.00 | 3.40 | 1.52 | 100 | 1018.4 |
| 20260503191900 | 23 | 71 | 6.4 | 17.7 | 0.00 | 3.40 | 1.52 | 100 | 1018.7 |
| 20260503191815 | 24 | 147 | 6.4 | 20.9 | 0.00 | 3.40 | 1.52 | 100 | 1018.5 |
| 20260503191559 | 24 | 147 | 6.4 | 20.9 | 0.00 | 3.40 | 1.52 | 100 | 1018.5 |
| 20260503191059 | 23 | 35 | 6.4 | 19.3 | 0.00 | 3.40 | 1.52 | 100 | 1018.6 |
| 20260503190559 | 23 | 71 | 6.4 | 17.7 | 0.00 | 3.40 | 1.52 | 100 | 1018.7 |
| 20260503190059 | 23 | 5 | 6.4 | 22.5 | 0.00 | 3.40 | 1.52 | 100 | 1018.7 |
| 20260503185638 | 23 | 40 | 11.3 | 19.3 | 0.00 | 3.40 | 1.52 | 100 | 1019.0 |
| 20260503185559 | 23 | 26 | 4.8 | 20.9 | 0.00 | 3.40 | 1.52 | 100 | 1018.8 |
| 20260503185059 | 23 | 40 | 11.3 | 19.3 | 0.00 | 3.40 | 1.52 | 100 | 1019.0 |
| 20260503184809 | 23 | 66 | 14.5 | 19.3 | 0.00 | 3.40 | 1.52 | 100 | 1019.1 |
| 20260503184559 | 23 | 66 | 14.5 | 19.3 | 0.00 | 3.40 | 1.52 | 100 | 1019.1 |
| 20260503184059 | 23 | 120 | 9.7 | 22.5 | 0.00 | 3.40 | 1.52 | 100 | 1019.2 |
| 20260503184003 | 23 | 28 | 17.7 | 19.3 | 0.00 | 3.40 | 1.52 | 100 | 1019.3 |
| 20260503183559 | 23 | 28 | 17.7 | 19.3 | 0.00 | 3.40 | 1.52 | 100 | 1019.3 |
| 20260503183433 | 22 | 90 | 14.5 | 22.5 | 0.00 | 3.40 | 1.52 | 100 | 1019.4 |
| 20260503183059 | 22 | 90 | 14.5 | 22.5 | 0.00 | 3.40 | 1.52 | 100 | 1019.4 |
| 20260503182559 | 23 | 49 | 8.0 | 19.3 | 0.00 | 3.40 | 1.52 | 100 | 1019.4 |
| 20260503182212 | 22 | 73 | 11.3 | 17.7 | 0.00 | 3.40 | 1.52 | 100 | 1019.4 |
| 20260503182059 | 22 | 73 | 11.3 | 17.7 | 0.00 | 3.40 | 1.52 | 100 | 1019.4 |
| 20260503181559 | 22 | 66 | 9.7 | 19.3 | 0.00 | 3.40 | 1.52 | 100 | 1019.4 |
| 20260503181059 | 22 | 99 | 8.0 | 14.5 | 0.00 | 3.40 | 1.52 | 100 | 1019.4 |
| 20260503180739 | 22 | 116 | 12.9 | 24.1 | 0.00 | 3.40 | 1.52 | 100 | 1019.5 |
| 20260503180559 | 22 | 116 | 12.9 | 24.1 | 0.00 | 3.40 | 1.52 | 100 | 1019.5 |
| 20260503180059 | 22 | 64 | 19.3 | 19.3 | 0.00 | 3.40 | 1.52 | 100 | 1019.5 |
| 20260503175559 | 22 | 71 | 9.7 | 16.1 | 0.00 | 3.40 | 1.52 | 100 | 1019.6 |
| 20260503175059 | 22 | 49 | 8.0 | 17.7 | 0.00 | 3.40 | 1.52 | 100 | 1019.6 |
| 20260503174825 | 22 | 82 | 1.6 | 12.9 | 0.00 | 3.40 | 1.52 | 100 | 1019.8 |
| 20260503174559 | 22 | 74 | 11.3 | 16.1 | 0.00 | 3.40 | 1.52 | 100 | 1019.7 |
| 20260503174059 | 21 | 81 | 11.3 | 20.9 | 0.00 | 3.40 | 1.52 | 100 | 1019.8 |
| 20260503173631 | 22 | 82 | 1.6 | 12.9 | 0.00 | 3.40 | 1.52 | 100 | 1019.8 |
| 20260503173559 | 22 | 67 | 9.7 | 17.7 | 0.00 | 3.40 | 1.52 | 100 | 1019.8 |
| 20260503173059 | 22 | 82 | 1.6 | 12.9 | 0.00 | 3.40 | 1.52 | 100 | 1019.8 |
| 20260503172940 | 21 | 59 | 8.0 | 19.3 | 0.00 | 3.40 | 1.52 | 100 | 1019.8 |
| 20260503172819 | 21 | 90 | 8.0 | 19.3 | 0.00 | 3.40 | 1.52 | 100 | 1019.8 |
| 20260503172559 | 21 | 59 | 8.0 | 19.3 | 0.00 | 3.40 | 1.52 | 100 | 1019.8 |
| 20260503172525 | 21 | 90 | 8.0 | 19.3 | 0.00 | 3.40 | 1.52 | 100 | 1019.8 |
| 20260503172059 | 21 | 90 | 8.0 | 19.3 | 0.00 | 3.40 | 1.52 | 100 | 1019.8 |
| 20260503172013 | 21 | 78 | 11.3 | 17.7 | 0.00 | 3.40 | 1.52 | 100 | 1019.8 |
| 20260503171835 | 21 | 78 | 11.3 | 17.7 | 0.00 | 3.40 | 1.52 | 100 | 1019.8 |
| 20260503171559 | 21 | 78 | 11.3 | 17.7 | 0.00 | 3.40 | 1.52 | 100 | 1019.8 |
| 20260503171439 | 21 | 42 | 6.4 | 17.7 | 0.00 | 3.40 | 1.52 | 100 | 1020.0 |
| 20260503171059 | 21 | 42 | 6.4 | 17.7 | 0.00 | 3.40 | 1.52 | 100 | 1020.0 |
| 20260503170559 | 21 | 70 | 6.4 | 14.5 | 0.00 | 3.40 | 1.52 | 100 | 1020.0 |
| 20260503150600 | 20 | 78 | 11.3 | 25.7 | 0.00 | 3.40 | 1.52 | 100 | 1020.1 |
| 20260503150514 | 20 | 74 | 8.0 | 22.5 | 0.00 | 3.40 | 1.52 | 100 | 1020.0 |
| 20260503131100 | 19 | 15 | 11.3 | 12.9 | 0.00 | 3.40 | 1.52 | 100 | 1019.3 |
| 20260503130600 | 18 | 39 | 4.8 | 12.9 | 0.00 | 3.40 | 1.52 | 100 | 1019.2 |
| 20260503110601 | 18 | 28 | 3.2 | 12.9 | 0.00 | 3.40 | 1.52 | 100 | 1017.9 |
| 20260503100206 | 18 | 54 | 4.8 | 14.5 | 0.00 | 3.40 | 1.52 | 100 | 1017.3 |
| 20260503081622 | 20 | 49 | 3.2 | 19.3 | 0.23 | 3.40 | 1.52 | 100 | 1016.3 |
| 20260503081601 | 20 | 4 | 11.3 | 22.5 | 0.10 | 3.40 | 1.52 | 100 | 1016.6 |
| 20260503081345 | 20 | 49 | 3.2 | 19.3 | 0.23 | 3.40 | 1.52 | 100 | 1016.3 |
| 20260503081101 | 20 | 49 | 3.2 | 19.3 | 0.23 | 3.40 | 1.52 | 100 | 1016.3 |
| 20260503081025 | 20 | 36 | 11.3 | 19.3 | 0.30 | 3.40 | 1.52 | 100 | 1016.0 |
| 20260503080601 | 20 | 36 | 11.3 | 19.3 | 0.30 | 3.40 | 1.52 | 100 | 1016.0 |
| 20260503080554 | 20 | 16 | 6.4 | 19.3 | 0.48 | 3.40 | 1.52 | 100 | 1016.0 |
| 20260503072602 | 20 | 347 | 9.7 | 14.5 | 1.12 | 3.38 | 1.50 | 100 | 1016.1 |
| 20260503072102 | 20 | 355 | 8.0 | 16.1 | 1.17 | 3.38 | 1.50 | 100 | 1016.4 |
| 20260503071602 | 20 | 345 | 11.3 | 19.3 | 1.14 | 3.30 | 1.42 | 100 | 1016.4 |
| 20260503071514 | 20 | 358 | 4.8 | 12.9 | 1.14 | 3.17 | 1.30 | 100 | 1016.4 |
| 20260503071136 | 20 | 358 | 4.8 | 12.9 | 1.14 | 3.17 | 1.30 | 100 | 1016.4 |
| 20260503071102 | 20 | 358 | 4.8 | 12.9 | 1.14 | 3.17 | 1.30 | 100 | 1016.4 |
| 20260503070819 | 21 | 348 | 11.3 | 12.9 | 1.12 | 3.10 | 1.22 | 100 | 1016.5 |
| 20260503070602 | 21 | 348 | 11.3 | 12.9 | 1.12 | 3.10 | 1.22 | 100 | 1016.5 |
| 20260503055102 | 21 | 268 | 0.0 | 0.0 | 0.00 | 1.88 | 0.00 | 100 | 1016.6 |
| 20260503054602 | 21 | 268 | 0.0 | 0.0 | 0.00 | 1.88 | 0.00 | 100 | 1016.7 |
| 20260503054442 | 21 | 268 | 0.0 | 6.4 | 0.00 | 1.88 | 0.00 | 100 | 1016.7 |
| 20260503054135 | 21 | 268 | 0.0 | 6.4 | 0.00 | 1.88 | 0.00 | 100 | 1016.7 |
| 20260503054102 | 21 | 268 | 0.0 | 6.4 | 0.00 | 1.88 | 0.00 | 100 | 1016.7 |
| 20260503053614 | 21 | 157 | 0.0 | 0.0 | 0.00 | 1.88 | 0.00 | 100 | 1016.6 |
| 20260503053602 | 21 | 237 | 0.0 | 1.6 | 0.00 | 1.88 | 0.00 | 100 | 1016.8 |
| 20260503053102 | 21 | 157 | 0.0 | 0.0 | 0.00 | 1.88 | 0.00 | 100 | 1016.6 |
| 20260503052602 | 21 | 157 | 0.0 | 0.0 | 0.00 | 1.88 | 0.00 | 100 | 1016.5 |
| 20260503052102 | 21 | 157 | 0.0 | 1.6 | 0.00 | 1.88 | 0.00 | 100 | 1016.3 |